weather.gov     
National Weather Service

Terminal Aerodrome Forecast
NWS Homepage
This page is being discontinued on March 12, 2014.
The same data is available at this site. Please update your bookmarks.
Thank you, and we apologize for the inconvenience.
Please send an email to SR-SRH.Webmaster@noaa.gov with any concerns.


Current Version
Previous Version:    01  02  03  04  05  06  07  08  09  10  11  12  13  14  15  16  17  18  19  20  21  22  23  24  25  26  27  28  29  30  
   31  
[Printable]
236
FTUS43 KDTX 221400 AAA
TAFDET
TAF AMD
KDET 221400Z 2214/2312 36007KT P6SM OVC020
     FM221600 36007KT P6SM OVC025
     FM221800 36007KT P6SM BKN030
     FM222000 01007KT P6SM SCT035
     FM222300 02004KT P6SM SKC=




236
FTUS43 KDTX 221400 AAA
TAFDET
TAF AMD
KDET 221400Z 2214/2312 36007KT P6SM OVC020
     FM221600 36007KT P6SM OVC025
     FM221800 36007KT P6SM BKN030
     FM222000 01007KT P6SM SCT035
     FM222300 02004KT P6SM SKC=


U.S. Dept. of Commerce
NOAA National Weather Service
1325 East West Highway
Silver Spring, MD 20910
E-mail: w-nws.webmaster@noaa.gov
Page last modified: May 16, 2007
NATIONAL WEATHER SERVICE: for Safety, for Work, for Fun - FOR LIFE